Temperature
6 4 4 4 4 5 5 5 5 5 4 3 3 3 4 3 3 2 2 3 4 4 5 5 5 5 5 5 5 5 5 5 5 5 5 5 5 5 5 5 5 5 5 6
4 4 4 4 4 5 5 5 4 4 4 3 2 2 3 2 2 3 2 2 3 3 4 4 4 4 5 5 5 5 4 4 4 4 4 4 4 5 5 5 5 5 5 5
5 4 4 4 4 4 4 4 4 4 3 3 2 3 3 3 2 2 2 2 2 3 3 3 4 4 4 4 4 4 4 4 4 4 4 4 4 4 4 4 4 4 4 4
3 3 4 4 4 4 4 4 3 3 3 2 2 3 3 2 1 1 1 2 2 2 3 3 3 3 3 3 3 3 3 3 3 3 3 3 3 3 3 4 4 4 4 4
3 3 3 4 3 3 3 3 2 2 1 1 1 2 3 1 2 1 1 1 2 2 2 2 3 3 3 3 3 3 3 3 3 3 3 2 2 3 3 3 3 3 3 3
2 2 2 3 2 3 2 2 1 0 1 2 1 1 2 1 1 1 1 1 2 2 2 2 2 3 3 3 3 3 3 2 2 2 2 2 2 2 2 2 2 3 3 3
3 2 2 2 2 2 2 2 2 2 2 2 1 1 1 1 0 -0 -0 1 1 1 2 2 2 2 2 2 2 2 2 2 2 2 2 1 2 2 2 2 2 2 2 2
3 3 1 1 1 1 1 2 3 3 3 2 0 0 1 0 -0 -0 -0 0 1 1 1 1 1 2 2 2 2 2 2 2 2 1 1 1 1 1 1 1 1 1 1 2
2 2 1 1 0 1 1 0 1 1 -0 0 1 -1 -0 -0 -1 -1 -1 -1 -0 1 1 1 1 1 1 1 1 1 1 1 1 1 1 1 1 1 1 1 0 0 1 1
1 1 0 -0 0 0 0 -1 -1 0 2 2 1 0 1 0 -0 -1 -2 -2 -1 0 0 1 1 1 1 1 1 1 1 0 0 0 0 0 0 0 -0 -0 -0 -0 0 0
0 0 -0 -1 -1 -0 -1 -1 -1 -1 -0 1 1 1 -0 -1 -1 -2 -2 -1 -1 -0 -0 -0 0 -0 -0 0 0 0 0 0 -0 -0 -0 -0 -0 -1 -1 -1 -1 -1 -1 -0
-1 -1 -1 -1 -2 -2 -1 -1 -1 0 -0 -2 -1 1 -1 -2 -2 -2 -2 -1 -1 -1 -0 -0 -0 -1 -1 -1 -0 -0 -0 -1 -1 -1 -1 -1 -1 -1 -1 -1 -1 -1 -1 -1
-2 -1 -0 0 -1 -2 -2 -3 -3 -2 -2 -2 -1 0 -2 -3 -3 -2 -2 -1 -1 -1 -1 -1 -1 -1 -1 -1 -1 -1 -1 -1 -1 -2 -2 -2 -2 -2 -2 -2 -2 -2 -2 -2
-1 -2 -0 1 1 -2 -3 -3 -4 -3 -2 -2 -2 -1 -1 -2 -3 -2 -2 -1 -1 -1 -1 -2 -2 -2 -2 -2 -2 -2 -2 -2 -2 -2 -2 -2 -2 -2 -2 -2 -2 -2 -2 -2
-2 -2 -3 -2 -2 -3 -2 -3 -4 -3 -3 -2 -2 -2 -1 -2 -3 -2 -2 -2 -2 -2 -2 -2 -2 -2 -2 -2 -3 -3 -3 -3 -3 -3 -3 -3 -3 -3 -3 -3 -3 -3 -3 -3
-4 -3 -3 -3 -3 -3 -3 -3 -3 -4 -4 -3 -3 -3 -2 -2 -2 -2 -2 -2 -3 -2 -2 -2 -3 -3 -3 -3 -3 -3 -3 -3 -3 -3 -3 -3 -4 -4 -4 -4 -4 -3 -3 -3
-5 -4 -3 -3 -4 -3 -3 -3 -4 -4 -5 -4 -3 -2 -3 -4 -4 -3 -2 -2 -3 -2 -3 -3 -3 -3 -3 -4 -4 -4 -4 -4 -4 -4 -4 -4 -4 -4 -4 -4 -4 -4 -4 -4
-5 -5 -4 -4 -4 -3 -1 -4 -4 -4 -5 -6 -5 -4 -5 -4 -3 -3 -2 -2 -2 -3 -3 -3 -4 -4 -4 -4 -4 -4 -4 -4 -4 -4 -5 -5 -5 -5 -5 -5 -5 -5 -5 -5
-5 -5 -5 -4 -4 -4 -3 -4 -5 -5 -4 -5 -6 -5 -4 -4 -4 -3 -2 -3 -3 -3 -4 -4 -4 -4 -5 -5 -5 -5 -5 -5 -5 -5 -5 -5 -5 -6 -6 -6 -6 -6 -6 -6
-6 -6 -5 -5 -4 -3 -2 -5 -5 -4 -4 -5 -6 -6 -5 -5 -5 -4 -3 -4 -4 -4 -4 -4 -5 -5 -5 -5 -5 -5 -5 -5 -5 -6 -6 -6 -6 -6 -6 -6 -6 -6 -6 -6
-6 -7 -6 -6 -5 -5 -5 -6 -5 -4 -3 -4 -5 -5 -5 -6 -5 -4 -4 -4 -5 -5 -5 -5 -5 -5 -5 -6 -6 -6 -6 -6 -6 -6 -6 -6 -6 -7 -7 -7 -7 -7 -7 -7
-6 -7 -7 -7 -6 -4 -6 -7 -6 -4 -4 -4 -4 -4 -5 -5 -5 -5 -5 -5 -5 -5 -5 -5 -5 -6 -6 -6 -6 -6 -6 -6 -7 -7 -7 -7 -7 -7 -7 -8 -8 -8 -8 -8
-8 -7 -7 -6 -4 -5 -6 -5 -4 -5 -5 -4 -4 -4 -5 -5 -5 -5 -5 -5 -6 -6 -6 -6 -6 -6 -6 -7 -7 -7 -7 -7 -7 -7 -7 -8 -8 -8 -8 -8 -8 -8 -8 -9
-8 -9 -8 -8 -7 -6 -6 -5 -5 -5 -4 -4 -5 -5 -5 -5 -5 -6 -6 -6 -6 -6 -7 -7 -7 -7 -7 -7 -7 -7 -8 -8 -8 -8 -8 -8 -8 -8 -9 -9 -9 -9 -9 -9
-8 -10 -9 -9 -8 -7 -5 -5 -5 -5 -5 -5 -5 -5 -5 -6 -6 -6 -6 -6 -7 -7 -7 -7 -7 -7 -7 -8 -8 -8 -8 -8 -9 -9 -9 -9 -9 -9 -9 -9 -9 -9 -10 -10
-9 -9 -8 -6 -6 -7 -5 -4 -5 -5 -5 -5 -5 -6 -6 -6 -6 -6 -7 -7 -7 -7 -8 -8 -8 -8 -8 -8 -8 -9 -9 -9 -9 -9 -9 -9 -9 -10 -10 -10 -9 -9 -10 -10
Wind_Speed
3 4 1 5 6 3 3 3 5 5 1 2 6 10 10 4 3 5 5 5 5 6 4 2 2 2 1 2 2 2 2 1 0 1 1 2 2 2 1 2 2 2 2 2
4 2 5 3 2 1 2 3 5 4 1 2 5 9 9 5 5 5 5 5 5 4 3 2 2 1 1 2 3 2 3 2 2 2 2 2 2 2 2 2 2 2 2 2
5 3 2 2 1 2 3 4 5 4 3 2 4 7 5 3 2 2 3 3 3 4 4 4 3 2 2 2 3 3 3 2 3 1 0 1 1 1 1 2 2 2 3 3
1 2 1 2 2 2 5 3 3 3 1 4 0 5 6 3 3 3 4 3 3 3 3 3 3 3 3 3 3 2 2 2 2 1 1 1 1 2 3 2 2 3 3 3
2 1 1 2 3 3 3 1 1 2 3 2 1 3 7 2 4 5 5 4 4 3 3 3 3 3 3 2 2 2 2 2 1 2 2 2 2 2 2 2 3 3 3 3
1 0 0 1 1 1 1 2 3 3 3 3 4 5 7 3 4 4 4 4 4 3 3 3 3 2 2 2 1 1 1 2 1 2 2 3 3 2 2 3 3 3 3 3
3 1 1 1 2 2 2 3 3 3 2 6 2 4 8 5 3 3 4 5 4 3 2 3 3 3 3 2 2 1 1 2 2 2 3 3 3 3 4 4 4 4 3 3
2 4 1 1 1 2 2 4 4 4 5 5 1 6 6 3 2 2 3 3 3 3 3 3 3 3 3 3 2 2 3 3 2 2 3 2 2 3 3 4 4 4 4 4
2 4 1 1 1 3 3 3 2 3 1 3 6 7 7 2 3 2 3 3 4 4 3 4 4 4 3 3 3 3 3 3 3 3 2 2 2 3 3 4 4 4 4 4
4 3 2 2 1 2 1 4 3 3 2 5 6 5 5 4 4 4 4 4 5 4 4 4 4 4 4 3 3 3 2 3 3 2 2 2 3 3 3 3 3 4 4 4
2 3 3 1 3 4 2 2 2 2 3 4 4 6 4 5 4 4 5 4 4 4 4 4 4 4 4 3 3 2 3 3 3 2 2 2 3 3 3 3 3 4 4 4
2 2 3 5 2 0 3 4 5 4 4 4 4 7 3 3 3 3 5 5 3 3 4 4 4 4 3 4 3 3 3 3 3 2 2 2 3 3 3 3 4 4 4 4
3 3 2 4 2 1 1 2 3 2 2 4 5 7 2 2 3 3 5 5 4 3 3 3 3 3 3 4 4 3 3 3 3 2 2 2 3 3 4 4 4 4 4 4
2 3 6 8 5 3 4 4 4 4 4 5 9 10 8 6 6 6 5 5 4 3 3 3 3 3 4 4 3 3 4 3 3 3 2 3 4 4 4 4 4 4 4 4
2 4 5 6 4 3 5 6 7 9 9 9 9 9 13 8 7 7 5 4 4 5 4 4 4 3 4 4 4 3 4 4 3 3 3 4 4 4 4 4 4 4 4 4
1 2 2 4 2 3 6 9 9 10 8 10 11 14 10 7 4 5 5 5 5 6 5 5 4 4 4 4 4 4 4 4 3 3 3 4 4 4 4 4 4 4 4 4
2 3 1 4 3 4 7 8 9 6 6 7 11 11 5 5 6 6 6 6 7 7 6 5 5 5 4 4 4 4 4 3 3 3 4 4 4 5 5 5 5 5 5 5
4 3 2 2 3 6 6 0 4 6 6 8 7 7 6 7 6 6 6 6 7 5 5 5 4 4 4 3 3 3 3 2 3 3 4 4 4 5 5 5 5 6 5 5
3 5 3 2 3 8 8 3 3 5 7 6 9 10 7 4 5 6 4 3 5 4 4 4 4 4 4 4 3 2 3 2 3 3 4 4 4 5 5 6 6 5 5 5
2 2 3 2 3 6 6 2 1 2 6 4 4 7 5 2 4 5 3 3 4 3 3 3 3 3 3 4 2 2 3 3 4 4 5 5 4 5 5 6 6 5 5 5
2 2 4 5 6 8 5 1 3 2 6 3 2 4 2 4 5 5 5 5 4 4 3 2 2 3 3 3 2 2 3 4 5 5 5 5 4 5 5 5 5 5 5 5
6 5 5 4 5 8 1 3 5 5 4 3 3 3 4 6 6 6 5 5 4 4 4 3 2 3 4 2 2 3 4 5 4 4 4 5 5 4 4 4 5 4 4 5
6 6 5 8 7 3 3 4 4 3 4 4 4 5 5 5 6 6 5 4 4 4 3 3 2 3 4 3 2 4 5 4 4 4 4 5 5 5 5 4 5 5 4 4
4 1 3 5 8 6 6 6 5 4 5 6 5 5 4 6 6 5 5 4 4 3 3 3 2 3 4 4 4 4 4 3 3 4 4 5 4 5 5 4 4 4 4 4
4 4 3 6 7 6 6 6 7 7 6 6 5 4 5 5 6 5 5 4 4 4 3 3 3 4 5 5 4 4 4 2 3 4 4 4 4 4 5 5 4 5 5 5
4 6 6 8 6 5 6 4 5 5 6 6 5 5 4 4 5 5 4 4 3 3 3 3 4 4 5 4 5 5 3 2 2 3 4 4 4 4 4 5 6 7 7 9
Wind_Direction
36 73 193 221 205 196 176 205 251 259 274 226 245 263 269 252 242 255 259 255 257 261 274 285 275 270 256 245 234 224 232 243 216 252 263 269 271 286 286 280 266 237 237 243
51 247 239 222 185 163 184 237 266 282 300 244 276 277 273 244 234 233 239 246 250 268 298 300 290 287 256 246 240 231 227 226 222 236 233 242 256 259 270 292 282 264 252 235
179 231 250 147 120 196 230 217 241 261 329 336 324 296 272 264 238 250 238 243 255 251 265 278 281 265 264 265 254 242 235 230 224 228 338 343 349 336 304 303 298 295 272 257
204 295 120 155 201 188 248 236 241 253 303 287 9 284 281 269 292 283 275 271 262 262 266 275 279 277 267 262 267 254 234 230 222 188 195 197 231 253 260 270 282 295 283 267
255 306 114 199 235 203 224 302 228 225 187 282 277 230 282 313 287 287 287 278 272 262 254 262 267 263 270 269 262 253 236 230 215 187 196 205 241 258 284 295 288 289 290 281
264 286 151 221 330 116 132 62 57 62 91 263 226 196 275 244 237 280 306 304 290 273 264 268 285 302 309 325 323 315 275 262 231 209 214 218 237 261 290 296 284 288 289 286
317 310 12 62 60 33 67 81 13 350 325 254 183 205 249 252 232 231 279 304 305 302 292 296 309 312 311 316 315 304 284 278 262 232 234 236 238 235 242 261 266 280 284 281
282 283 265 24 165 191 200 154 169 218 243 280 262 236 250 246 264 262 276 298 324 331 323 311 302 295 293 296 297 297 287 286 282 259 262 264 261 243 252 259 261 261 264 269
208 261 357 8 331 148 153 195 176 148 219 276 266 279 299 282 318 333 329 335 322 323 320 309 310 304 294 292 286 275 280 288 287 277 279 280 274 262 257 261 260 264 273 278
175 253 286 322 35 24 130 145 112 146 204 262 282 273 261 281 290 312 321 314 308 318 318 316 313 306 298 289 285 287 279 276 278 277 275 279 279 273 262 257 265 269 275 276
165 203 294 342 199 204 132 132 150 156 179 197 268 271 229 225 241 266 282 288 289 301 307 311 314 314 312 315 314 310 302 302 301 299 300 310 305 296 288 273 273 270 277 269
168 156 262 253 246 203 186 186 165 187 230 201 227 268 270 229 252 254 275 287 295 297 306 309 312 322 327 324 324 318 312 312 311 314 323 321 316 313 310 300 290 285 280 274
151 144 321 331 343 3 240 219 199 174 156 189 212 258 304 320 297 275 272 283 289 299 310 318 322 321 317 316 320 321 317 311 319 323 323 320 315 313 309 304 304 298 282 281
145 180 203 229 246 207 234 228 195 172 208 230 230 253 283 295 299 299 288 278 281 283 287 302 310 310 309 309 312 317 320 321 322 318 312 309 305 302 300 303 307 302 288 284
134 222 239 258 263 218 238 239 206 207 214 225 245 249 268 273 271 276 279 283 294 298 300 298 297 300 305 312 317 321 323 326 325 319 310 303 304 306 308 309 310 308 306 295
144 229 278 286 264 250 273 261 230 229 232 238 258 269 265 275 276 280 278 274 281 284 285 289 289 291 294 297 303 310 313 314 317 310 307 313 319 320 318 315 316 316 314 306
189 176 221 273 308 334 278 248 211 210 214 205 235 253 275 282 280 278 276 267 266 270 273 273 277 279 281 283 285 285 292 305 313 313 317 321 324 324 321 320 323 318 316 315
174 170 195 273 19 252 249 180 191 214 241 223 245 266 271 268 284 281 267 256 268 277 280 280 283 287 291 289 291 292 297 301 307 315 319 322 323 319 318 322 320 318 317 314
179 165 171 186 245 275 293 266 187 207 269 237 242 266 280 307 317 299 273 252 257 266 276 280 281 288 295 293 293 297 300 306 308 309 310 311 312 311 315 316 315 313 312 312
69 127 163 176 219 251 266 288 255 129 286 281 232 258 280 357 311 293 317 312 301 304 301 297 305 309 299 295 293 288 292 299 295 295 297 301 303 303 304 305 307 307 305 304
131 159 200 214 234 263 275 316 106 166 265 307 258 262 252 226 247 286 311 315 310 310 310 309 307 299 292 295 289 281 287 285 292 299 302 305 306 301 298 302 304 305 308 311
180 181 199 185 215 256 247 130 188 238 298 295 279 270 259 264 285 298 303 308 314 319 322 317 311 308 309 299 274 278 283 292 303 305 306 307 308 307 310 310 310 309 310 311
203 200 197 198 219 264 182 214 256 282 280 280 279 281 274 278 286 297 304 303 305 307 311 313 303 310 314 306 278 275 291 303 307 309 308 309 312 311 310 307 307 311 308 307
253 216 207 249 264 266 253 268 287 280 266 271 272 278 271 272 282 291 298 302 306 307 307 308 306 306 307 310 305 287 294 301 305 307 309 312 315 316 314 306 300 300 300 303
227 176 224 258 279 302 280 260 271 280 282 285 287 278 267 265 277 278 287 292 295 300 305 300 293 294 300 309 309 306 304 304 306 305 307 313 313 309 311 308 297 296 284 288
193 191 205 247 249 237 268 283 282 279 281 283 288 293 286 261 268 276 277 280 287 293 300 301 298 298 301 305 304 305 304 297 298 306 309 308 308 306 307 310 313 308 305 308
Height
1497 1502 1507 1505 1505 1505 1507 1509 1509 1506 1505 1506 1505 1501 1496 1496 1496 1495 1495 1495 1495 1495 1497 1497 1498 1498 1499 1499 1500 1500 1500 1501 1501 1502 1502 1502 1503 1504 1505 1506 1507 1508 1508 1509
1502 1505 1503 1503 1504 1505 1506 1508 1509 1506 1505 1506 1505 1500 1493 1492 1492 1491 1491 1491 1491 1492 1493 1494 1494 1495 1495 1496 1496 1496 1497 1497 1498 1499 1499 1499 1500 1500 1501 1502 1503 1504 1504 1505
1501 1503 1501 1503 1505 1506 1506 1508 1508 1508 1507 1506 1507 1497 1492 1489 1489 1489 1489 1489 1489 1490 1490 1490 1491 1491 1492 1492 1493 1493 1494 1494 1495 1496 1496 1496 1497 1497 1497 1498 1499 1499 1500 1501
1503 1502 1501 1502 1504 1505 1505 1505 1506 1507 1510 1512 1510 1504 1491 1489 1488 1487 1486 1486 1486 1487 1487 1487 1488 1488 1489 1489 1490 1491 1491 1492 1492 1492 1492 1492 1492 1492 1493 1494 1495 1496 1496 1496
1503 1502 1502 1502 1502 1503 1504 1505 1506 1507 1511 1514 1513 1511 1494 1491 1488 1485 1484 1484 1484 1485 1485 1485 1485 1486 1487 1487 1487 1488 1488 1489 1489 1489 1489 1489 1489 1489 1490 1490 1491 1491 1492 1492
1503 1502 1502 1502 1503 1503 1505 1506 1508 1512 1514 1511 1509 1511 1496 1493 1487 1485 1483 1482 1482 1482 1483 1483 1484 1484 1484 1484 1485 1485 1485 1485 1485 1485 1486 1486 1486 1485 1486 1486 1486 1487 1487 1487
1503 1503 1503 1503 1504 1505 1506 1509 1511 1510 1515 1508 1508 1508 1497 1486 1485 1484 1483 1482 1481 1481 1481 1481 1481 1481 1481 1481 1482 1482 1482 1482 1482 1482 1482 1482 1482 1482 1482 1482 1482 1482 1482 1482
1504 1504 1504 1504 1504 1506 1507 1507 1509 1510 1509 1508 1510 1505 1490 1484 1483 1482 1482 1481 1480 1479 1479 1479 1479 1479 1480 1480 1479 1479 1479 1479 1479 1479 1478 1478 1478 1478 1478 1478 1478 1478 1478 1477
1506 1504 1505 1504 1504 1504 1506 1509 1509 1514 1518 1516 1506 1501 1489 1482 1481 1481 1481 1480 1479 1479 1478 1478 1478 1478 1478 1478 1477 1477 1477 1476 1476 1475 1475 1475 1475 1475 1474 1474 1474 1474 1473 1473
1505 1507 1506 1506 1505 1505 1506 1508 1513 1513 1510 1506 1501 1499 1491 1483 1481 1480 1480 1479 1478 1478 1477 1477 1477 1476 1476 1476 1475 1475 1474 1474 1473 1473 1472 1471 1471 1471 1471 1470 1469 1468 1468 1468
1505 1507 1507 1507 1507 1505 1508 1510 1510 1513 1512 1510 1505 1493 1483 1482 1480 1480 1479 1478 1477 1477 1477 1476 1475 1475 1474 1473 1473 1472 1471 1471 1470 1469 1469 1468 1467 1467 1466 1465 1464 1463 1463 1463
1506 1508 1508 1507 1506 1506 1506 1506 1508 1508 1510 1516 1511 1495 1480 1479 1478 1478 1478 1477 1477 1476 1476 1475 1474 1473 1472 1471 1470 1469 1468 1467 1467 1466 1465 1465 1464 1463 1462 1461 1460 1458 1458 1458
1505 1508 1507 1502 1507 1509 1507 1507 1508 1507 1509 1513 1508 1491 1480 1479 1477 1477 1476 1475 1475 1474 1474 1473 1472 1471 1470 1468 1467 1466 1465 1464 1463 1463 1462 1461 1460 1459 1457 1456 1455 1454 1454 1453
1502 1506 1504 1500 1496 1502 1505 1506 1507 1506 1507 1506 1500 1486 1479 1478 1477 1475 1474 1473 1472 1472 1471 1471 1470 1469 1468 1466 1465 1464 1463 1462 1461 1460 1459 1458 1457 1455 1454 1452 1450 1450 1449 1448
1502 1504 1503 1500 1499 1501 1500 1499 1502 1502 1498 1495 1487 1487 1476 1475 1475 1473 1471 1470 1470 1469 1469 1468 1467 1466 1465 1464 1463 1461 1460 1459 1458 1457 1456 1454 1453 1451 1450 1448 1446 1445 1444 1443
1503 1504 1504 1501 1499 1499 1497 1493 1495 1496 1494 1491 1487 1481 1472 1472 1471 1470 1468 1468 1467 1466 1466 1465 1465 1464 1463 1462 1460 1458 1457 1456 1455 1454 1453 1451 1449 1448 1446 1444 1442 1441 1440 1438
1504 1504 1504 1500 1500 1497 1493 1484 1487 1488 1486 1485 1482 1474 1470 1470 1469 1467 1466 1465 1464 1463 1463 1462 1461 1461 1460 1459 1457 1456 1454 1453 1452 1451 1449 1448 1446 1444 1442 1440 1438 1437 1435 1433
1502 1503 1504 1503 1502 1498 1479 1480 1479 1480 1478 1478 1474 1471 1469 1468 1466 1465 1464 1463 1461 1461 1460 1459 1458 1457 1457 1456 1455 1453 1452 1450 1449 1448 1446 1444 1443 1440 1439 1437 1435 1433 1430 1429
1497 1499 1503 1504 1503 1493 1481 1478 1479 1480 1475 1471 1471 1468 1467 1466 1464 1461 1460 1460 1459 1458 1457 1456 1455 1454 1453 1452 1451 1450 1448 1447 1446 1444 1443 1441 1439 1437 1435 1433 1431 1429 1427 1425
1498 1499 1502 1505 1502 1494 1478 1477 1475 1477 1475 1467 1466 1466 1465 1466 1466 1461 1458 1457 1456 1455 1454 1453 1452 1451 1450 1449 1448 1447 1445 1444 1442 1441 1440 1438 1436 1434 1432 1430 1428 1425 1423 1421
1502 1503 1503 1503 1501 1489 1478 1476 1476 1480 1472 1466 1464 1464 1464 1464 1463 1459 1456 1455 1453 1452 1451 1450 1449 1448 1447 1446 1445 1443 1442 1441 1439 1438 1436 1435 1433 1431 1428 1426 1424 1422 1420 1417
1497 1501 1502 1501 1500 1488 1476 1476 1476 1471 1466 1464 1463 1462 1461 1460 1458 1456 1454 1452 1451 1449 1448 1447 1446 1445 1444 1443 1442 1440 1439 1438 1436 1435 1433 1431 1429 1427 1425 1423 1421 1419 1417 1414
1492 1489 1488 1488 1481 1473 1472 1470 1468 1467 1465 1463 1461 1460 1459 1457 1455 1453 1451 1449 1448 1447 1445 1444 1443 1442 1441 1440 1439 1437 1435 1434 1432 1431 1429 1427 1426 1424 1422 1420 1417 1415 1413 1411
1486 1485 1485 1483 1473 1470 1469 1467 1466 1464 1462 1460 1459 1458 1456 1454 1452 1450 1448 1447 1445 1444 1443 1442 1440 1439 1437 1436 1435 1434 1432 1431 1429 1427 1426 1424 1422 1420 1419 1417 1414 1412 1410 1408
1480 1483 1482 1478 1470 1467 1463 1463 1462 1461 1459 1457 1456 1454 1453 1451 1449 1447 1445 1444 1443 1442 1440 1439 1437 1436 1434 1433 1432 1430 1429 1427 1426 1424 1422 1421 1419 1417 1415 1414 1412 1409 1408 1406
1475 1476 1477 1470 1464 1465 1461 1459 1459 1458 1456 1454 1452 1450 1449 1448 1446 1444 1443 1442 1440 1439 1438 1436 1435 1433 1431 1430 1428 1427 1426 1424 1423 1421 1419 1417 1416 1414 1412 1410 1408 1407 1405 1403